Weather Roundup
Issued by NWS Springfield, MO

Home | Current Version | Previous Version | Text Only | Print | Product List | Glossary On
Versions: 1 2 3 4 5 6 7 8 9 10 11 12 13 14 15 16 17 18 19 20 21 22 23 24 25 26 27 28 29 30 31 32 33 34 35 36 37 38 39 40 41 42 43 44 45 46 47 48 49 50
000
NZUS99 KSGF 261557
HRRSGF

HOURLY WEATHER
NATIONAL WEATHER SERVICE SPRINGFIELD MO
1100 AM CDT THU MAY 26 2016

......SGF CWA......

CITY           SKY/WX    TMP DP  RH WIND       PRES   REMARKS
SPRINGFIELD    CLOUDY    77  65  66 E7        29.97S
JOPLIN         MOSUNNY   83  73  72 S14       29.91F
WEST PLAINS    PTSUNNY   80  72  76 SE8       30.01S
ROLLA          CLOUDY    69  67  93 SE17      29.97F
BRANSON        CLOUDY    79  73  83 CALM      30.00S

......SURROUNDING SGF CWA......

CITY           SKY/WX    TMP DP  RH WIND       PRES   REMARKS
CHANUTE        CLOUDY    80  73  79 S16G22    29.87S
PARSONS        CLOUDY    81  74  79 S10       29.88F
COFFEYVILLE    CLOUDY    81  73  76 S13G21    29.88S
EMPORIA        CLOUDY    81  73  76 SE15      29.82S
HARRISON AR    PTSUNNY   81  72  74 S12       30.01R

......KANSAS AND MISSOURI......

CITY           SKY/WX    TMP DP  RH WIND       PRES   REMARKS
KANSAS CTY INT LGT RAIN  68  65  90 SE20      29.87F
SEDALIA        SUNNY     80  66  62 SW9       29.92F
ST JOSEPH      LGT RAIN  69  64  84 SE5       29.87F
ST LOUIS       PTSUNNY   75  66  73 S9        29.97S
WICHITA        CLOUDY    82  73  74 S14       29.79S HAZE
TOPEKA         CLOUDY    73  69  87 E10       29.85F
OLATHE         CLOUDY    77  69  76 SE10      29.89S

......TENNESSEE......

CITY           SKY/WX    TMP DP  RH WIND       PRES   REMARKS
MEMPHIS        NOT AVBL
NASHVILLE      PTSUNNY   83  65  54 S12       30.12S

......ARKANSAS.......

CITY           SKY/WX    TMP DP  RH WIND       PRES   REMARKS
FAYETTEVILLE   PTSUNNY   79  73  82 S13       29.98S
FT SMITH       PTSUNNY   83  70  64 S10G22    29.94F
LITTLE ROCK    PTSUNNY   85  73  67 SW7       30.02R HX  91

......OKLAHOMA.......

CITY           SKY/WX    TMP DP  RH WIND       PRES   REMARKS
TULSA          CLOUDY    81  74  79 S18       29.87R
MCALESTER      CLOUDY    78  72  81 S9G17     29.92F
OKLAHOMA CITY  PTSUNNY   83  74  74 S26G35    29.84F

......IOWA............

CITY           SKY/WX    TMP DP  RH WIND       PRES   REMARKS
DES MOINES     NOT AVBL
QUAD CITIES    PTSUNNY   79  65  62 S10       29.90F

......ILLINOIS........

CITY           SKY/WX    TMP DP  RH WIND       PRES   REMARKS
QUINCY         NOT AVBL
CHICAGO        CLOUDY    75  64  68 SW9       29.93R




USA.gov is the U.S. government's official web portal to all federal, state and local government web resources and services.